EUTELSAT 80A

Last updated on Jan. 15, 2021, 6:30 a.m. UTC

1 26369U 00028A   21014.82063530  .00000112  00000-0  00000-0 0  9995
2 26369   3.8768  79.6919 0004500 213.1717 165.2952  1.00268619 75591
UTC
Height (km)
Latitude
Longitude
Inclination
Orbital Period
UTC large
Height (km)
Speed (km/s)
/
Latitude / Longitude
Inclination (degrees)
Orbital Period (minutes)
Azimuth
Elevation
Range (km)
Doppler Factor
iOS Compass Heading
iOS Angle

Next 30 passes for location: Hong Kong

Rise time Rise Azimuth (degrees) Set time Set Azimuth (degrees) Duration Max altitude (degrees)

No matching passes for this satellites